This is the latest recevied weather packets stored in our database for station/object NM5PB. If no packets are shown the sender has not sent any weather packets the latest 10 day(s).
| Time | Temp. | Humidity | Pressure | Rain* | Wind** | Luminosity | Snow |
|---|---|---|---|---|---|---|---|
| 1777680664 | 11.11° C | 54% | - | 0 mm | - | - | - |
| 1777680064 | 11.11° C | 52% | - | 0 mm | - | - | - |
| 1777679464 | 11.11° C | 51% | - | 0 mm | - | - | - |
| 1777678864 | 11.67° C | 51% | - | 0 mm | - | - | - |
| 1777678264 | 11.67° C | 52% | - | 0 mm | - | - | - |
| 1777677664 | 11.67° C | 50% | - | 0 mm | - | - | - |
| 1777677064 | 11.67° C | 54% | - | 0 mm | - | - | - |
| 1777676464 | 11.67° C | 51% | - | 0 mm | - | - | - |
| 1777675864 | 12.22° C | 50% | - | 0 mm | - | - | - |
| 1777675264 | 12.22° C | 49% | - | 0 mm | - | - | - |
| 1777674664 | 12.78° C | 48% | - | 0 mm | - | - | - |
| 1777674065 | 12.22° C | 49% | - | 0 mm | - | - | - |
| 1777673464 | 12.78° C | 51% | - | 0 mm | - | - | - |
| 1777672864 | 12.78° C | 48% | - | 0 mm | - | - | - |
| 1777672264 | 12.78° C | 50% | - | 0 mm | - | - | - |
| 1777671664 | 11.67° C | 54% | - | 0 mm | - | - | - |
| 1777671064 | 11.11° C | 54% | - | 0 mm | - | - | - |
| 1777670464 | 11.67° C | 55% | - | 0 mm | - | - | - |
| 1777669864 | 11.67° C | 52% | - | 0 mm | - | - | - |
| 1777669264 | 11.67° C | 51% | - | 0 mm | - | - | - |
| 1777668664 | 12.22° C | 52% | - | 0 mm | - | - | - |
| 1777668064 | 12.22° C | 52% | - | 0 mm | - | - | - |
| 1777667464 | 13.33° C | 49% | - | 0 mm | - | - | - |
| 1777666864 | 12.78° C | 52% | - | 0 mm | - | - | - |
| 1777666264 | 12.22° C | 51% | - | 0 mm | - | - | - |
* Rain latest hour (hover to see other rain measurements)
** Current wind speed in m/s (hover to see current wind gust speed)